Flag for Antigua and Barbuda Weather past 2 weeks in Saint John's, Antigua and Barbuda

Now
73 °F

Passing clouds.


Feels Like: 73 °F
Forecast: 69 / 81 °F
Wind: 2 mph from North

Location: Vc Bird International Antigua Airport

Current Time: Jan 30, 2015 at 7:46:46 AM

Latest Report: Jan 30, 2015 at 7:00 AM


Visibility: N/A

Pressure: 29.98 "Hg

Humidity: 83%

Dew point: 68 °F

Location of Saint John'sLocation

Historic Weather in Saint John's — Graph

°F

Saint John's temperature yesterday

Maximum temperature yesterday: 82 °F (at 11:00 AM)
Minimum temperature yesterday: 75 °F (at 2:00 AM)
Average temperature yesterday: 78 °F

Past Weeks' High & Low Weather Summary

 TemperatureHumidityPressure
High82 °F (Jan 15, 11:00 AM)94% (Jan 18, 2:00 AM)30.07 "Hg (Jan 18, 2:00 AM)
Low70 °F (Jan 19, 4:00 AM)58% (Jan 29, 11:00 AM)29.92 "Hg (Jan 21, 3:00 PM)
Average78 °F76%30.00 "Hg
* Reported Jan 15 6:00 AM — Jan 30 6:00 AM, Saint John's, Weather by CustomWeather, © 2014

Note: Actual official high and low records may vary slightly from our data, if they occured in-between our weather recording intervals... More about our weather records

Advertising

Saint John's weather history for previous 24 hours

 ConditionsComfort  
Time TempWeatherWind HumidityBarometerVisibility
6:00 AM
Jan 30
75 °FPassing clouds.6 mph78%29.95 "HgN/A
5:00 AM77 °FPassing clouds.6 mph79%29.95 "HgN/A
4:00 AM75 °FPassing clouds.6 mph78%29.92 "HgN/A
3:00 AM75 °FPassing clouds.5 mph83%29.95 "HgN/A
2:00 AM75 °FPassing clouds.6 mph78%29.95 "HgN/A
1:00 AM75 °FPassing clouds.5 mph78%29.98 "HgN/A
12:00 AM75 °FPassing clouds.6 mph78%30.01 "HgN/A
11:00 PM
Jan 29
75 °FPassing clouds.6 mph78%30.01 "HgN/A
10:00 PM77 °FPassing clouds.6 mph74%30.01 "HgN/A
9:00 PM77 °FPassing clouds.6 mph74%30.01 "HgN/A
8:00 PM77 °FPassing clouds.7 mph74%30.01 "HgN/A
7:00 PM77 °FPassing clouds.7 mph74%29.98 "HgN/A
6:00 PM77 °FPassing clouds.7 mph74%29.98 "HgN/A
5:00 PM79 °FPassing clouds.9 mph65%29.95 "HgN/A
4:00 PM79 °FPassing clouds.9 mph70%29.95 "HgN/A
3:00 PM81 °FScattered clouds.8 mph66%29.95 "HgN/A
2:00 PM82 °FPassing clouds.9 mph62%29.98 "HgN/A
1:00 PM82 °FPassing clouds.10 mph62%29.98 "HgN/A
12:00 PM82 °FPassing clouds.10 mph58%30.01 "HgN/A
11:00 AM82 °FPassing clouds.10 mph58%30.04 "HgN/A
10:00 AM81 °FPassing clouds.10 mph62%30.04 "HgN/A
9:00 AM81 °FPassing clouds.9 mph62%30.04 "HgN/A
8:00 AM79 °FPassing clouds.8 mph70%30.01 "HgN/A
7:00 AM75 °FPassing clouds.6 mph78%29.98 "HgN/A
Weather by CustomWeather, © 2014

See weather overviewHow to use our weather pages